Location: Fours
(44.3167°N, 6.7000°E)
Time: 10:24:51
(UTC+00:00)

Cosmos 405 Rocket - Pass Details

Date: 16 October 2021
Orbit: 488 x 551 km, 81.3° (Epoch: 02 December)

Event Time Altitude Azimuth Distance (km) Brightness Sun altitude
Rises 18:31:42 0° 347° (NNW) 2,670 6.6 -19.4°
Reaches altitude 10° 18:33:50 10° 344° (NNW) 1,787 5.7 -19.8°
Maximum altitude 18:37:44 67° 263° (W) 585 3.1 -20.5°
Drops below altitude 10° 18:41:41 10° 180° (S) 1,804 5.4 -21.2°
Enters shadow 18:42:06 - 179° (S) 1,973 5.6 -21.3°
